FW1555 Weather Reports


Display with metric or nautical units.
time (UTC)temp
F
wind
direction
speed
MPH
gust
MPH
rain 1hr
in
rain 24hr
in
rain mn
in
humidity
%
barometer
mb
20260902203055 68 0 0.0 3.0 0.00 0.19 0.16 98 1019.3
20260902201559 67 0 0.0 0.0 0.00 0.19 0.16 98 1019.5
20260902200059 67 0 0.0 0.0 0.02 0.19 0.16 98 1019.6
20260902194558 67 0 0.0 1.0 0.04 0.19 0.16 99 1019.6
20260902193105 67 0 0.0 0.0 0.11 0.19 0.16 98 1019.7
20260902191631 67 0 0.0 0.0 0.13 0.19 0.16 98 1020.1
20260902190100 66 0 0.0 0.0 0.11 0.17 0.14 97 1020.2
20260902184600 67 0 0.0 1.0 0.09 0.16 0.12 96 1020.4
20260902183122 68 0 0.0 0.0 0.01 0.08 0.04 94 1020.8
20260902181607 68 0 0.0 0.0 0.00 0.07 0.03 93 1020.4
20260902180105 68 0 0.0 0.0 0.00 0.07 0.03 92 1020.0
20260902174558 68 0 0.0 1.0 0.00 0.09 0.03 91 1020.1
20260902173105 68 0 0.0 4.0 0.00 0.09 0.03 91 1020.2
20260902171614 68 0 0.0 5.0 0.00 0.09 0.03 91 1020.1
20260902170106 68 0 0.0 3.0 0.00 0.09 0.03 93 1020.0
20260902164602 67 0 0.0 0.0 0.00 0.10 0.03 95 1020.4
20260902163103 67 0 0.0 0.0 0.00 0.10 0.03 95 1020.7
20260902161558 67 0 0.0 0.0 0.00 0.10 0.03 95 1020.6
20260902160105 66 0 0.0 0.0 0.00 0.10 0.03 96 1020.5
20260902154549 66 0 0.0 0.0 0.00 0.17 0.03 97 1020.7
20260902153053 65 0 0.0 0.0 0.00 0.17 0.03 98 1020.6
20260902151556 65 0 0.0 0.0 0.00 0.17 0.03 98 1020.8
20260902150052 65 0 0.0 0.0 0.00 0.17 0.03 98 1021.0
20260902144548 65 0 0.0 0.0 0.00 0.21 0.03 99 1020.7
20260902143101 64 0 0.0 0.0 0.00 0.21 0.03 100 1020.7
20260902141554 64 0 0.0 0.0 0.00 0.21 0.03 99 1020.8
20260902140052 63 0 0.0 0.0 0.00 0.21 0.03 100 1020.8
20260902134555 63 0 0.0 0.0 0.00 0.21 0.03 100 1020.9
20260902133105 63 0 0.0 0.0 0.00 0.21 0.03 100 1020.7
20260902131556 63 0 0.0 0.0 0.00 0.21 0.03 100 1020.3
20260902130051 63 0 0.0 0.0 0.00 0.21 0.03 100 1020.3
20260902124549 62 0 0.0 0.0 0.00 0.21 0.03 100 1020.4
20260902123053 62 0 0.0 0.0 0.00 0.21 0.03 100 1020.2
20260902121553 62 0 0.0 0.0 0.00 0.21 0.03 100 1020.1
20260902120050 63 0 0.0 0.0 0.00 0.21 0.03 100 1020.2
20260902114549 63 0 0.0 0.0 0.00 0.21 0.03 100 1020.1
20260902113049 63 0 0.0 1.0 0.00 0.21 0.03 100 1020.1
20260902111605 63 0 0.0 0.0 0.00 0.21 0.03 100 1019.9
20260902110053 63 0 0.0 0.0 0.00 0.21 0.03 100 1019.9
20260902104615 63 0 0.0 0.0 0.00 0.21 0.03 100 1019.9
20260902103059 63 0 0.0 0.0 0.00 0.21 0.03 100 1020.0
20260902101553 63 0 0.0 0.0 0.00 0.21 0.03 100 1019.6
20260902100055 63 0 0.0 0.0 0.01 0.21 0.03 99 1019.5
20260902094551 63 0 0.0 1.0 0.01 0.21 0.03 100 1019.5
20260902093105 63 0 0.0 0.0 0.01 0.21 0.03 100 1019.3
20260902091553 63 0 0.0 0.0 0.02 0.21 0.03 100 1019.4
20260902090051 64 0 0.0 0.0 0.01 0.20 0.02 100 1019.4
20260902084549 64 0 0.0 0.0 0.01 0.20 0.02 99 1019.4
20260902083058 63 0 0.0 0.0 0.01 0.20 0.02 99 1019.1
20260902081554 64 0 0.0 0.0 0.00 0.19 0.01 99 1018.8
20260902080051 64 0 0.0 0.0 0.00 0.19 0.01 99 1018.7
20260902074609 64 0 0.0 3.0 0.00 0.19 0.01 99 1018.5
20260902073102 64 0 0.0 3.0 0.00 0.19 0.01 99 1018.5
20260902071554 64 0 0.0 0.0 0.00 0.19 0.01 99 1018.3
20260902070105 64 0 0.0 0.0 0.01 0.19 0.01 99 1018.4
20260902064555 64 0 0.0 0.0 0.01 0.29 0.01 99 1018.5
20260902063059 64 0 0.0 0.0 0.01 0.29 0.01 99 1018.7
20260902060058 64 0 0.0 0.0 0.00 0.28 0.00 99 1018.8
20260902054613 64 0 0.0 0.0 0.00 0.36 0.00 98 1018.9
20260902053106 64 0 0.0 0.0 0.00 0.36 0.00 98 1018.7
20260902051556 64 0 0.0 0.0 0.00 0.36 0.00 98 1018.5
20260902050106 64 0 0.0 0.0 0.00 0.36 0.00 98 1018.7
20260902044607 64 0 0.0 0.0 0.00 0.65 0.00 98 1018.8
20260902043105 64 0 0.0 0.0 0.00 0.65 0.00 97 1018.6
20260902041556 65 0 0.0 0.0 0.00 0.65 0.00 97 1018.6
20260902040107 65 0 0.0 4.0 0.00 0.65 0.00 97 1018.5
20260902034605 65 0 0.0 2.0 0.00 0.71 0.65 97 1018.2
20260902033059 65 0 0.0 1.0 0.00 0.71 0.65 97 1017.9
20260902031601 65 0 0.0 1.0 0.00 0.71 0.65 97 1017.6
20260902024600 65 0 0.0 3.0 0.00 0.71 0.65 97 1017.4
20260902023108 65 0 0.0 0.0 0.00 0.71 0.65 97 1017.4
20260902021553 66 0 0.0 4.0 0.00 0.71 0.65 97 1017.2
20260902014556 66 0 0.0 1.0 0.00 0.71 0.65 98 1017.1
20260902013055 66 0 0.0 1.0 0.00 0.71 0.65 97 1016.4
20260902011549 67 0 0.0 1.0 0.00 0.71 0.65 97 1016.2
20260902010048 67 0 0.0 4.0 0.03 0.71 0.65 97 1016.0
20260902004601 68 0 1.0 9.0 0.03 0.71 0.65 96 1015.7
20260902003059 68 0 0.0 4.0 0.03 0.71 0.65 96 1015.8
20260902001603 70 0 1.0 8.0 0.03 0.71 0.65 95 1015.2
20260902000106 71 0 0.0 9.0 0.00 0.68 0.62 95 1015.0
20260901234557 72 0 0.0 6.0 0.00 0.68 0.62 95 1014.8
20260901233058 73 69 0.0 4.0 0.00 0.68 0.62 95 1014.8
20260901231554 74 0 0.0 2.0 0.00 0.68 0.62 95 1014.8
20260901224559 76 0 0.0 5.0 0.00 0.68 0.62 94 1014.4
20260901223056 77 0 0.0 2.0 0.00 0.68 0.62 93 1013.8
20260901221600 77 0 0.0 0.0 0.00 0.68 0.62 92 1013.9
20260901220056 77 0 0.0 1.0 0.00 0.68 0.62 91 1014.0
20260901214548 78 0 0.0 1.0 0.00 0.68 0.62 90 1014.0
20260901213055 79 0 0.0 1.0 0.00 0.68 0.62 89 1014.2
20260901211554 79 0 0.0 0.0 0.00 0.68 0.62 89 1014.2
20260901210100 79 0 0.0 0.0 0.00 0.68 0.62 90 1014.1
20260901204558 78 0 0.0 0.0 0.00 0.68 0.62 93 1014.1